Location: Stara Lesna
(49.1528°N, 20.2911°E)
Time: 03:09:17
(UTC+02:00)

NOSS 2-1 (D) - Pass Details

Date: 13 July 2020
Orbit: 447 x 1756 km, 63.3° (Epoch: 01 August)

Event Time Altitude Azimuth Distance (km) Brightness Sun altitude
Rises 01:26:50 0° 318° (NW) 2,959 7.6 -18.4°
Reaches altitude 10° 01:28:50 10° 319° (NW) 2,180 6.9 -18.4°
Maximum altitude 01:33:50 83° 48° (NE) 890 4.3 -18.2°
Drops below altitude 10° 01:40:53 10° 137° (SE) 3,038 6.8 -18.0°
Sets 01:44:05 0° 138° (SE) 4,216 7.5 -17.8°
